TimeMST,TemperatureF,Dew PointF,Humidity,Sea Level PressureIn,VisibilityMPH,Wind Direction,Wind SpeedMPH,Gust SpeedMPH,PrecipitationIn,Events,Conditions,WindDirDegrees,DateUTC
12:54 AM,-15.0,-20.9,75,30.28,10.0,Calm,Calm,-,N/A,,Clear,0,2013-12-09 07:54:00
1:54 AM,-16.1,-22.0,74,30.28,10.0,Calm,Calm,-,N/A,,Clear,0,2013-12-09 08:54:00
2:54 AM,-17.0,-24.0,70,30.30,10.0,ENE,3.5,-,N/A,,Clear,60,2013-12-09 09:54:00
3:54 AM,-18.0,-24.0,74,30.31,10.0,Calm,Calm,-,N/A,,Clear,0,2013-12-09 10:54:00
4:54 AM,-20.0,-26.0,74,30.34,10.0,NE,4.6,-,N/A,,Clear,40,2013-12-09 11:54:00
5:54 AM,-18.9,-25.1,74,30.39,10.0,Calm,Calm,-,N/A,,Clear,0,2013-12-09 12:54:00
6:54 AM,-22.0,-27.9,74,30.51,10.0,Calm,Calm,-,N/A,,Clear,0,2013-12-09 13:54:00
7:54 AM,-18.0,-24.0,74,30.59,10.0,ENE,3.5,-,N/A,,Clear,70,2013-12-09 14:54:00
8:54 AM,-7.1,-11.0,83,30.56,10.0,Calm,Calm,-,N/A,,Clear,0,2013-12-09 15:54:00
9:54 AM,17.1,-0.9,45,30.48,10.0,NE,8.1,-,N/A,,Clear,50,2013-12-09 16:54:00
10:54 AM,17.1,-2.0,43,30.53,10.0,ENE,15.0,-,N/A,,Clear,60,2013-12-09 17:54:00
11:54 AM,19.9,-0.9,40,30.54,10.0,NE,9.2,-,N/A,,Clear,40,2013-12-09 18:54:00
12:54 PM,21.0,-2.0,36,30.53,10.0,ENE,8.1,-,N/A,,Clear,70,2013-12-09 19:54:00
1:54 PM,24.1,-2.0,32,30.52,10.0,NE,8.1,-,N/A,,Clear,50,2013-12-09 20:54:00
2:54 PM,24.1,-11.0,21,30.54,10.0,NE,11.5,-,N/A,,Clear,50,2013-12-09 21:54:00
3:54 PM,21.9,-15.0,19,30.56,10.0,NE,12.7,-,N/A,,Clear,50,2013-12-09 22:54:00
4:54 PM,19.0,-14.1,22,30.61,10.0,NE,15.0,-,N/A,,Clear,50,2013-12-09 23:54:00
5:54 PM,16.0,-15.0,24,30.63,10.0,East,5.8,-,N/A,,Clear,80,2013-12-10 00:54:00
6:54 PM,12.9,-7.1,41,30.67,10.0,NE,9.2,-,N/A,,Clear,50,2013-12-10 01:54:00
7:54 PM,10.0,-7.1,46,30.67,10.0,NE,4.6,-,N/A,,Clear,40,2013-12-10 02:54:00
8:54 PM,3.0,-8.0,60,30.67,10.0,Calm,Calm,-,N/A,,Clear,0,2013-12-10 03:54:00
9:54 PM,-4.0,-11.9,69,30.61,10.0,NE,3.5,-,N/A,,Clear,50,2013-12-10 04:54:00
10:54 PM,-0.9,-9.9,66,30.61,10.0,ENE,4.6,-,N/A,,Clear,60,2013-12-10 05:54:00
11:54 PM,-5.1,-13.0,69,30.60,10.0,East,3.5,-,N/A,,Clear,100,2013-12-10 06:54:00